Regional Weather Roundup
Issued by NWS Northern Indiana

Home | Current Version | Previous Version | Graphics & Text | Print | Product List | Glossary On
Versions: 1 2 3 4 5 6 7 8 9 10 11 12 13 14 15 16 17 18 19 20 21 22 23 24 25 26 27 28 29 30 31 32 33 34 35 36 37 38 39 40 41 42 43 44 45 46 47 48 49 50
000
ASUS43 KIWX 010310
RWRIWX

KIWX WEATHER ROUNDUP
NATIONAL WEATHER SERVICE NORTHERN INDIANA
1100 PM EDT FRI JUL 31 2015

NOTE: "FAIR" INDICATES FEW OR NO CLOUDS BELOW 12,000 FEET WITH NO
SIGNIFICANT WEATHER AND/OR OBSTRUCTIONS TO VISIBILITY.

* THESE STATIONS ARE NOT UNDER NWS QUALITY CONTROL. THEY ALSO MAY NOT
  REPORT WEATHER SUCH AS PRECIPITATION OR FOG.

INZ001>027-010400-
NORTHERN INDIANA

CITY           SKY/WX    TMP DP  RH WIND       PRES   REMARKS
GARY*          CLEAR     77  46  33 NW9       29.97R
VALPARAISO     CLEAR     71  56  58 W3        29.98R
MICHIGAN CITY* CLEAR     63  61  94 CALM      29.97R
LAPORTE*       CLEAR     63  60  88 CALM      29.98R
KNOX*          CLEAR     63  59  88 SW3       29.96R
SOUTH BEND     PTCLDY    66  56  70 NW3       29.96R
GOSHEN         CLEAR     64  56  75 SW3       29.96R
MONTICELLO*    CLEAR     69  60  73 W3        29.97R
LOGANSPORT*    CLEAR     64  54  68 CALM      29.98R
ROCHESTER*     CLEAR     70  57  64 CALM      29.97S
WARSAW*        CLEAR     63  55  77 CALM      29.97R
ANGOLA*        CLEAR     66  57  72 CALM      29.96R
FORT WAYNE     PTCLDY    71  56  58 NW6       29.97R
HUNTINGTON*    CLEAR     68  59  73 CALM      29.96R
PERU/GRISSOM   CLEAR     72  57  58 NW3       29.97R
MARION*        CLEAR     65  59  81 CALM      29.98R

$$
INZ028>050-010400-
CENTRAL INDIANA

CITY           SKY/WX    TMP DP  RH WIND       PRES   REMARKS
LAFAYETTE      CLEAR     68  59  73 W3        29.98R
KOKOMO*        CLEAR     70  46  43 NW6       29.98R
MUNCIE*        CLEAR     70  58  65 W7        29.98R
INDIANAPOLIS   PTCLDY    72  58  61 W8        29.98R

$$
MIZ043>046-050>051-056>058-064>065-071>073-077>080-010400-
SOUTHWEST LOWER MICHIGAN

CITY           SKY/WX    TMP DP  RH WIND       PRES   REMARKS
BATTLE CREEK   CLEAR     67  52  58 W7        29.94R
BENTON HARBOR  CLEAR     64  59  83 CALM      29.95R
COLDWATER*     CLEAR     65  52  64 W5        29.95R
HILLSDALE*     CLEAR     66  52  61 W3        29.94S
HOLLAND        PTCLDY    67  59  75 W8        29.94R
GRAND RAPIDS   PTCLDY    69  55  60 W7        29.92R
KALAMAZOO      CLEAR     65  53  65 W5        29.95R
STURGIS*       CLEAR     63  55  77 CALM      29.95R
THREE RIVERS*  FAIR      65  55  69 CALM      29.95R

$$
OHZ001>008-015>018-024>025-010400-
NORTHWEST OHIO

CITY           SKY/WX    TMP DP  RH WIND       PRES   REMARKS
WAUSEON*       FAIR      66  55  68 W7        29.93R
DEFIANCE       CLEAR     73  53  49 W5        29.94R
FINDLAY        PTCLDY    71  62  73 W7        29.93R
TOLEDO EXPRESS CLEAR     70  55  59 W7        29.91R
TOLEDO METCALF CLEAR     73  53  49 W10       29.91R
LIMA           MOCLDY    67  65  93 W5        29.95R

$$
AND FOR LAKE MICHIGAN COASTAL AND OPEN LAKE BUOY OBSERVATIONS

STATION/POSITION TEMP    WIND        PRES    VSBY  WAVE
                 AIR SEA DIR/SP/G                  HT/PER
                 (F)     (DEG/KT/KT) (MB)    (MI)  (FT/S)
CALUMET HARBOR    79     300/  6/  9   N/A
MICHIGAN CITY     74     320/  9/ 10   N/A
BURNS HARBOR      76     340/ 10/ 12 1014.6R
SAINT JOSEPH      74     240/  5/  7 1014.9R
4 MI NW BRIDGMAN  74 74  320/  8/  8   N/A           2/ 5
MICHIGAN CITY     76 74  320/ 10/ 12   N/A           2/ 5

$$
&&


USA.gov is the U.S. government's official web portal to all federal, state and local government web resources and services.